カタログに戻る

CZ-6A DEB

運用中PO
NORAD 61100·DEBRIS·🇨🇳 China

打ち上げ Aug 6, 2024 から Taiyuan Satellite Launch Center

Loading…

次のパス (今後24時間)

TLE

最新Source: Space-Track

元期: Sep 14, 2026, 11:02 UTC

1 61100U 24140NS  26257.46015495  .00001523  00000-0  31421-3 0  9990
2 61100  89.0311 262.9684 0109553 317.5928  41.6852 14.56229321108603

AllMySatでCZ-6A DEBをリアルタイム追跡

Download on the App Store